Погода в Самолве

Россия / Псковская область     58°17′27″N   27°37′19″E
темп.,
°C
ветер,
м/с
пор.,
м/с
влажн.,
%
обл.,
%
осадки,
мм/ч
давл.,
гПа
погр.,
м
9 мая, вс
вс900:00+2з410793 0.0 1013234
03:00+1з511850 0.0 1015277
06:00+1з49901 0.0 1016232
09:00+5з46692 0.0 1018296
12:00+9з3554100 0.0 1019668
15:00+10зюз2448100 0.0 1019832
18:00+11ююз364498 0.0 1019920
21:00+8ю356583 0.0 101979
10 мая, пн
пн1000:00+7ю596999 0.0 1019163
03:00+6ююв61387100 1.3 1019421
06:00+7ю6108173 0.6 1019257
09:00+10ю597452 0.6 1020236
12:00+14ююз69616 0.0 1020463
15:00+17ююз695559 0.0 1020674
18:00+17ю59596 0.0 1020649
21:00+13ю610725 0.0 1022207
11 мая, вт
вт1100:00+11ю5108363 0.0 1023222
03:00+10ююв598783 0.0 1024182
06:00+8ююв61089100 0.0 1024182
09:00+11ююв6972100 0.0 1024254
12:00+15ююв61057100 0.0 1024432
15:00+16ююв695384 0.0 1024538
18:00+15ююв695968 0.0 1023419
21:00+12юв467673 0.0 102464
12 мая, ср
ср1200:00+10юв468846 0.0 102479
03:00+8юв359098 0.0 102458
06:00+8юв358947 0.0 102458
09:00+10юв45734 0.0 1024127
12:00+14юв35640 0.0 1023239
15:00+17вюв35580 0.0 1022483
18:00+15всв24675 0.0 1020286
21:00+15вюв477893 0.1 1020114
13 мая, чт
чт1300:00+12юв36938 0.0 102094
03:00+10юв3410049 0.0 102061
06:00+8вюв3410094 0.0 101963
09:00+10всв239056 0.0 1018151
12:00+12св349269 0.5 101599
15:00+12вюв51096100 5.7 1012246
18:00+13юв59840 1.9 1012447
21:00+10юв4684100 1.9 1012125